owner,sensor,date,latitude,longitude,vertical_datum,wind_speed,wind_to_direction,wind_speed_of_gust,qcFlag 
TCOON,ioos:station:TCOON:518:1,2008-01-01T00:00:00Z,29.5150,-94.5133,0.0,1.4,93.0,1.7,'11111222,11111222,11111222' 
TCOON,ioos:station:TCOON:518:1,2008-01-01T01:00:00Z,29.5150,-94.5133,0.0,1.9,32.0,2.0,'11111222,11111222,11111222' 
TCOON,ioos:station:TCOON:518:1,2008-01-01T03:00:00Z,29.5150,-94.5133,0.0,6.9,342.0,8.8,'11111222,11111222,11111222' 
TCOON,ioos:station:TCOON:518:1,2008-01-01T04:00:00Z,29.5150,-94.5133,0.0,6.6,349.0,8.4,'11111222,11111222,11111222' 
TCOON,ioos:station:TCOON:518:1,2008-01-01T05:00:00Z,29.5150,-94.5133,0.0,7.8,355.0,9.0,'11111222,11111222,11111222' 
TCOON,ioos:station:TCOON:518:1,2008-01-01T06:00:00Z,29.5150,-94.5133,0.0,7.8,356.0,8.9,'11111222,11111222,11111222' 
TCOON,ioos:station:TCOON:518:1,2008-01-01T07:00:00Z,29.5150,-94.5133,0.0,6.3,360.0,7.4,'11111222,11144222,11111222' 
TCOON,ioos:station:TCOON:518:1,2008-01-01T08:00:00Z,29.5150,-94.5133,0.0,7.6,356.0,8.8,'11111222,11111222,11111222' 
TCOON,ioos:station:TCOON:518:1,2008-01-01T09:00:00Z,29.5150,-94.5133,0.0,9.1,360.0,10.8,'11111222,11144222,11111222' 
TCOON,ioos:station:TCOON:518:1,2008-01-01T10:00:00Z,29.5150,-94.5133,0.0,8.6,2.0,10.1,'11111222,11111222,11111222' 
TCOON,ioos:station:TCOON:518:1,2008-01-01T11:00:00Z,29.5150,-94.5133,0.0,7.0,351.0,8.4,'11111222,11111222,11111222' 
TCOON,ioos:station:TCOON:518:1,2008-01-01T12:00:00Z,29.5150,-94.5133,0.0,7.6,352.0,9.5,'11111222,11111222,11111222' 
TCOON,ioos:station:TCOON:518:1,2008-01-01T13:00:00Z,29.5150,-94.5133,0.0,6.8,348.0,8.0,'11111222,11111222,11111222' 
TCOON,ioos:station:TCOON:518:1,2008-01-01T14:00:00Z,29.5150,-94.5133,0.0,7.9,348.0,8.9,'11111222,11111222,11111222' 
TCOON,ioos:station:TCOON:518:1,2008-01-01T15:00:00Z,29.5150,-94.5133,0.0,10.1,356.0,12.1,'11111222,11111222,11111222' 
TCOON,ioos:station:TCOON:518:1,2008-01-01T16:00:00Z,29.5150,-94.5133,0.0,9.7,4.0,11.5,'11111222,11111222,11111222' 
TCOON,ioos:station:TCOON:518:1,2008-01-01T17:00:00Z,29.5150,-94.5133,0.0,8.8,4.0,10.3,'11111222,11111222,11111222' 
TCOON,ioos:station:TCOON:518:1,2008-01-01T18:00:00Z,29.5150,-94.5133,0.0,9.3,355.0,13.1,'11111222,11111222,11111222' 
TCOON,ioos:station:TCOON:518:1,2008-01-01T19:00:00Z,29.5150,-94.5133,0.0,7.9,358.0,9.0,'11111222,11111222,11111222' 
TCOON,ioos:station:TCOON:518:1,2008-01-01T20:00:00Z,29.5150,-94.5133,0.0,9.9,345.0,12.2,'11111222,11111222,11111222' 
TCOON,ioos:station:TCOON:518:1,2008-01-01T21:00:00Z,29.5150,-94.5133,0.0,7.5,351.0,9.3,'11111222,11111222,11111222' 
TCOON,ioos:station:TCOON:518:1,2008-01-01T22:00:00Z,29.5150,-94.5133,0.0,9.1,352.0,10.3,'11111222,11111222,11111222' 
TCOON,ioos:station:TCOON:518:1,2008-01-01T23:00:00Z,29.5150,-94.5133,0.0,8.6,354.0,10.2,'11111222,11111222,11111222' 
TCOON,ioos:station:TCOON:518:1,2008-01-02T00:00:00Z,29.5150,-94.5133,0.0,5.4,354.0,6.5,'11111222,11111222,11111222' 
TCOON,ioos:station:TCOON:518:1,2008-01-02T01:00:00Z,29.5150,-94.5133,0.0,6.3,342.0,7.6,'11111222,11111222,11111222' 
TCOON,ioos:station:TCOON:518:1,2008-01-02T02:00:00Z,29.5150,-94.5133,0.0,5.3,334.0,6.5,'11111222,11111222,11111222' 
TCOON,ioos:station:TCOON:518:1,2008-01-02T03:00:00Z,29.5150,-94.5133,0.0,5.6,335.0,6.7,'11111222,11111222,11111222' 
TCOON,ioos:station:TCOON:518:1,2008-01-02T04:00:00Z,29.5150,-94.5133,0.0,5.6,327.0,6.6,'11111222,11111222,11111222' 
TCOON,ioos:station:TCOON:518:1,2008-01-02T05:00:00Z,29.5150,-94.5133,0.0,6.3,327.0,7.3,'11111222,11111222,11111222' 
TCOON,ioos:station:TCOON:518:1,2008-01-02T06:00:00Z,29.5150,-94.5133,0.0,6.2,336.0,7.4,'11111222,11111222,11111222' 
TCOON,ioos:station:TCOON:518:1,2008-01-02T07:00:00Z,29.5150,-94.5133,0.0,6.3,335.0,7.4,'11111222,11111222,11111222' 
TCOON,ioos:station:TCOON:518:1,2008-01-02T08:00:00Z,29.5150,-94.5133,0.0,7.1,338.0,8.3,'11111222,11111222,11111222' 
TCOON,ioos:station:TCOON:518:1,2008-01-02T09:00:00Z,29.5150,-94.5133,0.0,7.4,341.0,8.9,'11111222,11111222,11111222' 
TCOON,ioos:station:TCOON:518:1,2008-01-02T10:00:00Z,29.5150,-94.5133,0.0,7.0,336.0,8.5,'11111222,11111222,11111222' 
TCOON,ioos:station:TCOON:518:1,2008-01-02T11:00:00Z,29.5150,-94.5133,0.0,6.8,333.0,9.0,'11111222,11111222,11111222' 
TCOON,ioos:station:TCOON:518:1,2008-01-02T12:00:00Z,29.5150,-94.5133,0.0,6.9,343.0,8.0,'11111222,11111222,11111222' 
TCOON,ioos:station:TCOON:518:1,2008-01-02T13:00:00Z,29.5150,-94.5133,0.0,6.2,340.0,7.1,'11111222,11111222,11111222' 
TCOON,ioos:station:TCOON:518:1,2008-01-02T14:00:00Z,29.5150,-94.5133,0.0,7.2,337.0,8.5,'11111222,11111222,11111222' 
TCOON,ioos:station:TCOON:518:1,2008-01-02T15:00:00Z,29.5150,-94.5133,0.0,10.2,343.0,12.4,'11111222,11111222,11111222' 
TCOON,ioos:station:TCOON:518:1,2008-01-02T16:00:00Z,29.5150,-94.5133,0.0,8.5,358.0,11.1,'11111222,11111222,11111222' 
TCOON,ioos:station:TCOON:518:1,2008-01-02T17:00:00Z,29.5150,-94.5133,0.0,8.3,359.0,9.3,'11111222,11111222,11111222' 
TCOON,ioos:station:TCOON:518:1,2008-01-02T18:00:00Z,29.5150,-94.5133,0.0,6.6,336.0,8.6,'11111222,11111222,11111222' 
TCOON,ioos:station:TCOON:518:1,2008-01-02T19:00:00Z,29.5150,-94.5133,0.0,7.1,344.0,8.3,'11111222,11111222,11111222' 
TCOON,ioos:station:TCOON:518:1,2008-01-02T20:00:00Z,29.5150,-94.5133,0.0,5.6,337.0,6.8,'11111222,11111222,11111222' 
TCOON,ioos:station:TCOON:518:1,2008-01-02T21:00:00Z,29.5150,-94.5133,0.0,7.7,335.0,9.3,'11111222,11111222,11111222' 
TCOON,ioos:station:TCOON:518:1,2008-01-02T22:00:00Z,29.5150,-94.5133,0.0,6.0,350.0,6.7,'11111222,11111222,11111222' 
TCOON,ioos:station:TCOON:518:1,2008-01-02T23:00:00Z,29.5150,-94.5133,0.0,6.3,358.0,7.2,'11111222,11111222,11111222' 
TCOON,ioos:station:TCOON:518:1,2008-01-03T00:00:00Z,29.5150,-94.5133,0.0,4.9,356.0,5.8,'11111222,11111222,11111222' 
TCOON,ioos:station:TCOON:518:1,2008-01-03T01:00:00Z,29.5150,-94.5133,0.0,5.8,5.0,6.6,'11111222,11111222,11111222' 
TCOON,ioos:station:TCOON:518:1,2008-01-03T02:00:00Z,29.5150,-94.5133,0.0,4.8,6.0,5.5,'11111222,11111222,11111222' 
TCOON,ioos:station:TCOON:518:1,2008-01-03T03:00:00Z,29.5150,-94.5133,0.0,4.2,4.0,5.5,'11111222,11111222,11111222' 
TCOON,ioos:station:TCOON:518:1,2008-01-03T04:00:00Z,29.5150,-94.5133,0.0,4.4,2.0,5.0,'11111222,11111222,11111222' 
TCOON,ioos:station:TCOON:518:1,2008-01-03T05:00:00Z,29.5150,-94.5133,0.0,4.6,26.0,5.2,'11111222,11111222,11111222' 
TCOON,ioos:station:TCOON:518:1,2008-01-03T06:00:00Z,29.5150,-94.5133,0.0,5.4,28.0,6.1,'11111222,11111222,11111222' 
TCOON,ioos:station:TCOON:518:1,2008-01-03T07:00:00Z,29.5150,-94.5133,0.0,6.3,39.0,7.1,'11111222,11111222,11111222' 
TCOON,ioos:station:TCOON:518:1,2008-01-03T08:00:00Z,29.5150,-94.5133,0.0,6.1,48.0,8.1,'11111222,11111222,11111222' 
TCOON,ioos:station:TCOON:518:1,2008-01-03T09:00:00Z,29.5150,-94.5133,0.0,7.0,48.0,8.5,'11111222,11111222,11111222' 
TCOON,ioos:station:TCOON:518:1,2008-01-03T10:00:00Z,29.5150,-94.5133,0.0,8.3,51.0,10.1,'11111222,11111222,11111222' 
TCOON,ioos:station:TCOON:518:1,2008-01-03T11:00:00Z,29.5150,-94.5133,0.0,7.9,49.0,9.1,'11111222,11111222,11111222' 
TCOON,ioos:station:TCOON:518:1,2008-01-03T12:00:00Z,29.5150,-94.5133,0.0,7.8,48.0,9.0,'11111222,11111222,11111222' 
TCOON,ioos:station:TCOON:518:1,2008-01-03T13:00:00Z,29.5150,-94.5133,0.0,7.8,48.0,9.3,'11111222,11111222,11111222' 
TCOON,ioos:station:TCOON:518:1,2008-01-03T14:00:00Z,29.5150,-94.5133,0.0,8.2,44.0,9.5,'11111222,11111222,11111222' 
TCOON,ioos:station:TCOON:518:1,2008-01-03T15:00:00Z,29.5150,-94.5133,0.0,7.6,45.0,8.9,'11111222,11111222,11111222' 
TCOON,ioos:station:TCOON:518:1,2008-01-03T16:00:00Z,29.5150,-94.5133,0.0,6.7,44.0,7.7,'11111222,11111222,11111222' 
TCOON,ioos:station:TCOON:518:1,2008-01-03T17:00:00Z,29.5150,-94.5133,0.0,6.5,49.0,7.3,'11111222,11111222,11111222' 
TCOON,ioos:station:TCOON:518:1,2008-01-03T18:00:00Z,29.5150,-94.5133,0.0,5.3,79.0,6.8,'11111222,11111222,11111222' 
TCOON,ioos:station:TCOON:518:1,2008-01-03T19:00:00Z,29.5150,-94.5133,0.0,5.4,92.0,6.8,'11111222,11111222,11111222' 
TCOON,ioos:station:TCOON:518:1,2008-01-03T20:00:00Z,29.5150,-94.5133,0.0,5.3,94.0,7.4,'11111222,11111222,11111222' 
TCOON,ioos:station:TCOON:518:1,2008-01-03T21:00:00Z,29.5150,-94.5133,0.0,4.6,97.0,6.6,'11111222,11111222,11111222' 
TCOON,ioos:station:TCOON:518:1,2008-01-03T22:00:00Z,29.5150,-94.5133,0.0,4.8,115.0,5.5,'11111222,11111222,11111222' 
TCOON,ioos:station:TCOON:518:1,2008-01-03T23:00:00Z,29.5150,-94.5133,0.0,5.2,110.0,6.7,'11111222,11111222,11111222' 
TCOON,ioos:station:TCOON:518:1,2008-01-04T00:00:00Z,29.5150,-94.5133,0.0,5.0,113.0,6.3,'11111222,11111222,11111222' 
TCOON,ioos:station:TCOON:518:1,2008-01-04T01:00:00Z,29.5150,-94.5133,0.0,6.1,114.0,7.0,'11111222,11111222,11111222' 
TCOON,ioos:station:TCOON:518:1,2008-01-04T02:00:00Z,29.5150,-94.5133,0.0,5.8,132.0,7.2,'11111222,11111222,11111222' 
TCOON,ioos:station:TCOON:518:1,2008-01-04T04:00:00Z,29.5150,-94.5133,0.0,5.5,124.0,7.0,'11111222,11111222,11111222' 
TCOON,ioos:station:TCOON:518:1,2008-01-04T05:00:00Z,29.5150,-94.5133,0.0,6.2,113.0,8.0,'11111222,11111222,11111222' 
TCOON,ioos:station:TCOON:518:1,2008-01-04T06:00:00Z,29.5150,-94.5133,0.0,5.8,102.0,6.7,'11111222,11111222,11111222' 
TCOON,ioos:station:TCOON:518:1,2008-01-04T07:00:00Z,29.5150,-94.5133,0.0,6.6,100.0,8.3,'11111222,11111222,11111222' 
TCOON,ioos:station:TCOON:518:1,2008-01-04T08:00:00Z,29.5150,-94.5133,0.0,7.3,95.0,8.4,'11111222,11111222,11111222' 
TCOON,ioos:station:TCOON:518:1,2008-01-04T09:00:00Z,29.5150,-94.5133,0.0,5.4,58.0,6.5,'11111222,11111222,11111222' 
TCOON,ioos:station:TCOON:518:1,2008-01-04T10:00:00Z,29.5150,-94.5133,0.0,7.9,70.0,9.5,'11111222,11111222,11111222' 
TCOON,ioos:station:TCOON:518:1,2008-01-04T11:00:00Z,29.5150,-94.5133,0.0,8.8,76.0,10.3,'11111222,11111222,11111222' 
TCOON,ioos:station:TCOON:518:1,2008-01-04T12:00:00Z,29.5150,-94.5133,0.0,10.2,80.0,12.4,'11111222,11111222,11111222' 
TCOON,ioos:station:TCOON:518:1,2008-01-04T13:00:00Z,29.5150,-94.5133,0.0,12.6,93.0,14.4,'11111222,11111222,11111222' 
TCOON,ioos:station:TCOON:518:1,2008-01-04T14:00:00Z,29.5150,-94.5133,0.0,10.7,85.0,12.4,'11111222,11111222,11111222' 
TCOON,ioos:station:TCOON:518:1,2008-01-04T15:00:00Z,29.5150,-94.5133,0.0,9.2,88.0,10.9,'11111222,11111222,11111222' 
TCOON,ioos:station:TCOON:518:1,2008-01-04T16:00:00Z,29.5150,-94.5133,0.0,8.2,90.0,10.1,'11111222,11111222,11111222' 
TCOON,ioos:station:TCOON:518:1,2008-01-04T17:00:00Z,29.5150,-94.5133,0.0,7.9,94.0,10.2,'11111222,11111222,11111222' 
TCOON,ioos:station:TCOON:518:1,2008-01-04T18:00:00Z,29.5150,-94.5133,0.0,8.3,99.0,9.6,'11111222,11111222,11111222' 
TCOON,ioos:station:TCOON:518:1,2008-01-04T19:00:00Z,29.5150,-94.5133,0.0,7.8,97.0,9.4,'11111222,11111222,11111222' 
TCOON,ioos:station:TCOON:518:1,2008-01-04T20:00:00Z,29.5150,-94.5133,0.0,7.5,102.0,8.4,'11111222,11111222,11111222' 
TCOON,ioos:station:TCOON:518:1,2008-01-04T21:00:00Z,29.5150,-94.5133,0.0,6.9,103.0,8.3,'11111222,11111222,11111222' 
TCOON,ioos:station:TCOON:518:1,2008-01-04T22:00:00Z,29.5150,-94.5133,0.0,6.5,94.0,7.6,'11111222,11111222,11111222' 
TCOON,ioos:station:TCOON:518:1,2008-01-04T23:00:00Z,29.5150,-94.5133,0.0,5.4,97.0,6.1,'11111222,11111222,11111222' 
TCOON,ioos:station:TCOON:518:1,2008-01-05T00:00:00Z,29.5150,-94.5133,0.0,6.2,109.0,7.4,'11111222,11111222,11111222' 
TCOON,ioos:station:TCOON:518:1,2008-01-05T01:00:00Z,29.5150,-94.5133,0.0,4.8,101.0,5.5,'11111222,11111222,11111222' 
TCOON,ioos:station:TCOON:518:1,2008-01-05T02:00:00Z,29.5150,-94.5133,0.0,7.2,119.0,8.1,'11111222,11111222,11111222' 
TCOON,ioos:station:TCOON:518:1,2008-01-05T03:00:00Z,29.5150,-94.5133,0.0,5.8,122.0,6.7,'11111222,11111222,11111222' 
TCOON,ioos:station:TCOON:518:1,2008-01-05T04:00:00Z,29.5150,-94.5133,0.0,4.9,127.0,6.0,'11111222,11111222,11111222' 
TCOON,ioos:station:TCOON:518:1,2008-01-05T05:00:00Z,29.5150,-94.5133,0.0,5.8,118.0,7.0,'11111222,11111222,11111222' 
TCOON,ioos:station:TCOON:518:1,2008-01-05T06:00:00Z,29.5150,-94.5133,0.0,5.3,131.0,6.1,'11111222,11111222,11111222' 
TCOON,ioos:station:TCOON:518:1,2008-01-05T07:00:00Z,29.5150,-94.5133,0.0,4.2,127.0,5.0,'11111222,11111222,11111222' 
TCOON,ioos:station:TCOON:518:1,2008-01-05T08:00:00Z,29.5150,-94.5133,0.0,3.2,123.0,3.4,'11111222,11111222,11111222' 
TCOON,ioos:station:TCOON:518:1,2008-01-05T09:00:00Z,29.5150,-94.5133,0.0,3.0,137.0,3.6,'11111222,11111222,11111222' 
TCOON,ioos:station:TCOON:518:1,2008-01-05T10:00:00Z,29.5150,-94.5133,0.0,2.7,138.0,3.0,'11111222,11111222,11111222' 
TCOON,ioos:station:TCOON:518:1,2008-01-05T11:00:00Z,29.5150,-94.5133,0.0,2.5,148.0,3.3,'11111222,11111222,11111222' 
TCOON,ioos:station:TCOON:518:1,2008-01-05T12:00:00Z,29.5150,-94.5133,0.0,3.2,144.0,4.0,'11111222,11111222,11111222' 
TCOON,ioos:station:TCOON:518:1,2008-01-05T13:00:00Z,29.5150,-94.5133,0.0,3.5,146.0,4.4,'11111222,11111222,11111222' 
TCOON,ioos:station:TCOON:518:1,2008-01-05T14:00:00Z,29.5150,-94.5133,0.0,3.8,156.0,5.0,'11111222,11111222,11111222' 
TCOON,ioos:station:TCOON:518:1,2008-01-05T15:00:00Z,29.5150,-94.5133,0.0,2.3,164.0,4.1,'11111222,11111222,11111222' 
TCOON,ioos:station:TCOON:518:1,2008-01-05T16:00:00Z,29.5150,-94.5133,0.0,3.3,167.0,6.2,'11111222,11111222,11111222' 
TCOON,ioos:station:TCOON:518:1,2008-01-05T17:00:00Z,29.5150,-94.5133,0.0,3.7,153.0,6.1,'11111222,11111222,11111222' 
TCOON,ioos:station:TCOON:518:1,2008-01-05T18:00:00Z,29.5150,-94.5133,0.0,3.5,159.0,5.2,'11111222,11111222,11111222' 
TCOON,ioos:station:TCOON:518:1,2008-01-05T19:00:00Z,29.5150,-94.5133,0.0,5.1,153.0,6.5,'11111222,11111222,11111222' 
TCOON,ioos:station:TCOON:518:1,2008-01-05T20:00:00Z,29.5150,-94.5133,0.0,6.1,159.0,8.1,'11111222,11111222,11111222' 
TCOON,ioos:station:TCOON:518:1,2008-01-05T21:00:00Z,29.5150,-94.5133,0.0,2.6,185.0,3.8,'11111222,11111222,11111222' 
TCOON,ioos:station:TCOON:518:1,2008-01-05T22:00:00Z,29.5150,-94.5133,0.0,3.4,168.0,4.9,'11111222,11111222,11111222' 
TCOON,ioos:station:TCOON:518:1,2008-01-05T23:00:00Z,29.5150,-94.5133,0.0,4.1,153.0,5.5,'11111222,11111222,11111222' 
TCOON,ioos:station:TCOON:518:1,2008-01-06T00:00:00Z,29.5150,-94.5133,0.0,4.2,155.0,5.5,'11111222,11111222,11111222' 
TCOON,ioos:station:TCOON:518:1,2008-01-06T01:00:00Z,29.5150,-94.5133,0.0,3.7,146.0,4.4,'11111222,11111222,11111222' 
TCOON,ioos:station:TCOON:518:1,2008-01-06T02:00:00Z,29.5150,-94.5133,0.0,4.3,149.0,5.4,'11111222,11111222,11111222' 
TCOON,ioos:station:TCOON:518:1,2008-01-06T03:00:00Z,29.5150,-94.5133,0.0,4.1,145.0,5.5,'11111222,11111222,11111222' 
TCOON,ioos:station:TCOON:518:1,2008-01-06T04:00:00Z,29.5150,-94.5133,0.0,3.6,150.0,4.8,'11111222,11111222,11111222' 
TCOON,ioos:station:TCOON:518:1,2008-01-06T05:00:00Z,29.5150,-94.5133,0.0,3.0,148.0,4.6,'11111222,11111222,11111222' 
TCOON,ioos:station:TCOON:518:1,2008-01-06T06:00:00Z,29.5150,-94.5133,0.0,3.7,149.0,4.8,'11111222,11111222,11111222' 
TCOON,ioos:station:TCOON:518:1,2008-01-06T07:00:00Z,29.5150,-94.5133,0.0,3.9,144.0,4.8,'11111222,11111222,11111222' 
TCOON,ioos:station:TCOON:518:1,2008-01-06T08:00:00Z,29.5150,-94.5133,0.0,3.2,141.0,3.9,'11111222,11111222,11111222' 
TCOON,ioos:station:TCOON:518:1,2008-01-06T09:00:00Z,29.5150,-94.5133,0.0,3.2,157.0,4.2,'11111222,11111222,11111222' 
TCOON,ioos:station:TCOON:518:1,2008-01-06T10:00:00Z,29.5150,-94.5133,0.0,4.1,152.0,5.3,'11111222,11111222,11111222' 
TCOON,ioos:station:TCOON:518:1,2008-01-06T11:00:00Z,29.5150,-94.5133,0.0,3.6,147.0,4.8,'11111222,11111222,11111222' 
TCOON,ioos:station:TCOON:518:1,2008-01-06T12:00:00Z,29.5150,-94.5133,0.0,4.2,139.0,4.8,'11111222,11111222,11111222' 
TCOON,ioos:station:TCOON:518:1,2008-01-06T13:00:00Z,29.5150,-94.5133,0.0,3.7,146.0,4.8,'11111222,11111222,11111222' 
TCOON,ioos:station:TCOON:518:1,2008-01-06T14:00:00Z,29.5150,-94.5133,0.0,4.1,148.0,5.1,'11111222,11111222,11111222' 
TCOON,ioos:station:TCOON:518:1,2008-01-06T15:00:00Z,29.5150,-94.5133,0.0,4.9,150.0,6.5,'11111222,11111222,11111222' 
TCOON,ioos:station:TCOON:518:1,2008-01-06T16:00:00Z,29.5150,-94.5133,0.0,5.1,147.0,6.5,'11111222,11111222,11111222' 
TCOON,ioos:station:TCOON:518:1,2008-01-06T17:00:00Z,29.5150,-94.5133,0.0,6.0,137.0,7.6,'11111222,11111222,11111222' 
TCOON,ioos:station:TCOON:518:1,2008-01-06T18:00:00Z,29.5150,-94.5133,0.0,5.2,141.0,7.3,'11111222,11111222,11111222' 
TCOON,ioos:station:TCOON:518:1,2008-01-06T19:00:00Z,29.5150,-94.5133,0.0,5.3,137.0,7.2,'11111222,11111222,11111222' 
TCOON,ioos:station:TCOON:518:1,2008-01-06T20:00:00Z,29.5150,-94.5133,0.0,4.6,129.0,5.4,'11111222,11111222,11111222' 
TCOON,ioos:station:TCOON:518:1,2008-01-06T21:00:00Z,29.5150,-94.5133,0.0,5.0,126.0,5.9,'11111222,11111222,11111222' 
TCOON,ioos:station:TCOON:518:1,2008-01-06T22:00:00Z,29.5150,-94.5133,0.0,5.6,122.0,6.6,'11111222,11111222,11111222' 
TCOON,ioos:station:TCOON:518:1,2008-01-06T23:00:00Z,29.5150,-94.5133,0.0,6.5,120.0,7.6,'11111222,11111222,11111222' 
TCOON,ioos:station:TCOON:518:1,2008-01-07T00:00:00Z,29.5150,-94.5133,0.0,7.3,123.0,8.4,'11111222,11111222,11111222' 
TCOON,ioos:station:TCOON:518:1,2008-01-07T01:00:00Z,29.5150,-94.5133,0.0,7.1,127.0,8.5,'11111222,11111222,11111222' 
TCOON,ioos:station:TCOON:518:1,2008-01-07T02:00:00Z,29.5150,-94.5133,0.0,6.8,129.0,7.8,'11111222,11111222,11111222' 
TCOON,ioos:station:TCOON:518:1,2008-01-07T03:00:00Z,29.5150,-94.5133,0.0,5.2,123.0,5.9,'11111222,11111222,11111222' 
TCOON,ioos:station:TCOON:518:1,2008-01-07T04:00:00Z,29.5150,-94.5133,0.0,5.9,129.0,7.3,'11111222,11111222,11111222' 
TCOON,ioos:station:TCOON:518:1,2008-01-07T05:00:00Z,29.5150,-94.5133,0.0,5.9,129.0,7.9,'11111222,11111222,11111222' 
TCOON,ioos:station:TCOON:518:1,2008-01-07T06:00:00Z,29.5150,-94.5133,0.0,6.4,130.0,7.1,'11111222,11111222,11111222' 
TCOON,ioos:station:TCOON:518:1,2008-01-07T07:00:00Z,29.5150,-94.5133,0.0,6.1,131.0,7.3,'11111222,11111222,11111222' 
TCOON,ioos:station:TCOON:518:1,2008-01-07T08:00:00Z,29.5150,-94.5133,0.0,7.0,130.0,8.1,'11111222,11111222,11111222' 
TCOON,ioos:station:TCOON:518:1,2008-01-07T09:00:00Z,29.5150,-94.5133,0.0,5.5,126.0,6.3,'11111222,11111222,11111222' 
TCOON,ioos:station:TCOON:518:1,2008-01-07T10:00:00Z,29.5150,-94.5133,0.0,6.2,121.0,7.4,'11111222,11111222,11111222' 
TCOON,ioos:station:TCOON:518:1,2008-01-07T11:00:00Z,29.5150,-94.5133,0.0,4.4,130.0,5.1,'11111222,11111222,11111222' 
TCOON,ioos:station:TCOON:518:1,2008-01-07T12:00:00Z,29.5150,-94.5133,0.0,2.8,131.0,3.1,'11111222,11111222,11111222' 
TCOON,ioos:station:TCOON:518:1,2008-01-07T13:00:00Z,29.5150,-94.5133,0.0,4.0,130.0,4.9,'11111222,11111222,11111222' 
TCOON,ioos:station:TCOON:518:1,2008-01-07T14:00:00Z,29.5150,-94.5133,0.0,5.1,134.0,6.2,'11111222,11111222,11111222' 
TCOON,ioos:station:TCOON:518:1,2008-01-07T15:00:00Z,29.5150,-94.5133,0.0,5.7,128.0,6.7,'11111222,11111222,11111222' 
TCOON,ioos:station:TCOON:518:1,2008-01-07T16:00:00Z,29.5150,-94.5133,0.0,6.1,130.0,7.4,'11111222,11111222,11111222' 
TCOON,ioos:station:TCOON:518:1,2008-01-07T17:00:00Z,29.5150,-94.5133,0.0,5.6,132.0,6.6,'11111222,11111222,11111222' 
TCOON,ioos:station:TCOON:518:1,2008-01-07T18:00:00Z,29.5150,-94.5133,0.0,5.9,126.0,7.0,'11111222,11111222,11111222' 
TCOON,ioos:station:TCOON:518:1,2008-01-07T19:00:00Z,29.5150,-94.5133,0.0,6.3,126.0,8.1,'11111222,11111222,11111222' 
TCOON,ioos:station:TCOON:518:1,2008-01-07T20:00:00Z,29.5150,-94.5133,0.0,7.3,127.0,8.7,'11111222,11111222,11111222' 
TCOON,ioos:station:TCOON:518:1,2008-01-07T21:00:00Z,29.5150,-94.5133,0.0,6.6,127.0,8.1,'11111222,11111222,11111222' 
TCOON,ioos:station:TCOON:518:1,2008-01-07T22:00:00Z,29.5150,-94.5133,0.0,5.6,125.0,6.7,'11111222,11111222,11111222' 
TCOON,ioos:station:TCOON:518:1,2008-01-07T23:00:00Z,29.5150,-94.5133,0.0,5.7,120.0,6.6,'11111222,11111222,11111222' 
TCOON,ioos:station:TCOON:518:1,2008-01-08T00:00:00Z,29.5150,-94.5133,0.0,6.0,120.0,7.3,'11111222,11111222,11111222' 
TCOON,ioos:station:TCOON:518:1,2008-01-08T01:00:00Z,29.5150,-94.5133,0.0,6.2,125.0,7.4,'11111222,11111222,11111222' 
TCOON,ioos:station:TCOON:518:1,2008-01-08T02:00:00Z,29.5150,-94.5133,0.0,5.4,132.0,6.1,'11111222,11111222,11111222' 
TCOON,ioos:station:TCOON:518:1,2008-01-08T03:00:00Z,29.5150,-94.5133,0.0,6.4,140.0,7.7,'11111222,11111222,11111222' 
TCOON,ioos:station:TCOON:518:1,2008-01-08T04:00:00Z,29.5150,-94.5133,0.0,5.9,142.0,7.2,'11111222,11111222,11111222' 
TCOON,ioos:station:TCOON:518:1,2008-01-08T05:00:00Z,29.5150,-94.5133,0.0,6.7,140.0,8.1,'11111222,11111222,11111222' 
TCOON,ioos:station:TCOON:518:1,2008-01-08T06:00:00Z,29.5150,-94.5133,0.0,6.8,137.0,8.0,'11111222,11111222,11111222' 
TCOON,ioos:station:TCOON:518:1,2008-01-08T07:00:00Z,29.5150,-94.5133,0.0,5.7,145.0,7.2,'11111222,11111222,11111222' 
TCOON,ioos:station:TCOON:518:1,2008-01-08T08:00:00Z,29.5150,-94.5133,0.0,5.0,142.0,6.2,'11111222,11111222,11111222' 
TCOON,ioos:station:TCOON:518:1,2008-01-08T09:00:00Z,29.5150,-94.5133,0.0,4.6,139.0,5.5,'11111222,11111222,11111222' 
TCOON,ioos:station:TCOON:518:1,2008-01-08T10:00:00Z,29.5150,-94.5133,0.0,3.7,159.0,5.3,'11111222,11111222,11111222' 
TCOON,ioos:station:TCOON:518:1,2008-01-08T11:00:00Z,29.5150,-94.5133,0.0,5.0,152.0,12.5,'11111222,11111222,11111222' 
TCOON,ioos:station:TCOON:518:1,2008-01-08T12:00:00Z,29.5150,-94.5133,0.0,3.0,142.0,3.9,'11111222,11111222,11111222' 
TCOON,ioos:station:TCOON:518:1,2008-01-08T13:00:00Z,29.5150,-94.5133,0.0,4.0,126.0,4.6,'11111222,11111222,11111222' 
TCOON,ioos:station:TCOON:518:1,2008-01-08T14:00:00Z,29.5150,-94.5133,0.0,4.2,129.0,4.8,'11111222,11111222,11111222' 
TCOON,ioos:station:TCOON:518:1,2008-01-08T15:00:00Z,29.5150,-94.5133,0.0,4.2,125.0,4.9,'11111222,11111222,11111222' 
TCOON,ioos:station:TCOON:518:1,2008-01-08T16:00:00Z,29.5150,-94.5133,0.0,4.1,129.0,4.7,'11111222,11111222,11111222' 
TCOON,ioos:station:TCOON:518:1,2008-01-08T17:00:00Z,29.5150,-94.5133,0.0,3.9,121.0,4.2,'11111222,11111222,11111222' 
TCOON,ioos:station:TCOON:518:1,2008-01-08T18:00:00Z,29.5150,-94.5133,0.0,2.6,150.0,4.1,'11111222,11111222,11111222' 
TCOON,ioos:station:TCOON:518:1,2008-01-08T19:00:00Z,29.5150,-94.5133,0.0,2.6,140.0,3.4,'11111222,11111222,11111222' 
TCOON,ioos:station:TCOON:518:1,2008-01-08T20:00:00Z,29.5150,-94.5133,0.0,4.5,152.0,6.4,'11111222,11111222,11111222' 
TCOON,ioos:station:TCOON:518:1,2008-01-08T21:00:00Z,29.5150,-94.5133,0.0,3.4,149.0,4.4,'11111222,11111222,11111222' 
TCOON,ioos:station:TCOON:518:1,2008-01-08T22:00:00Z,29.5150,-94.5133,0.0,3.1,154.0,4.7,'11111222,11111222,11111222' 
TCOON,ioos:station:TCOON:518:1,2008-01-08T23:00:00Z,29.5150,-94.5133,0.0,2.3,149.0,3.2,'11111222,11111222,11111222' 
TCOON,ioos:station:TCOON:518:1,2008-01-09T00:00:00Z,29.5150,-94.5133,0.0,7.0,12.0,8.0,'11111222,11111222,11111222' 
TCOON,ioos:station:TCOON:518:1,2008-01-09T01:00:00Z,29.5150,-94.5133,0.0,5.2,30.0,6.0,'11111222,11111222,11111222' 
TCOON,ioos:station:TCOON:518:1,2008-01-09T02:00:00Z,29.5150,-94.5133,0.0,1.9,52.0,2.3,'11111222,11111222,11111222' 
TCOON,ioos:station:TCOON:518:1,2008-01-09T03:00:00Z,29.5150,-94.5133,0.0,6.2,1.0,7.7,'11111222,11111222,11111222' 
TCOON,ioos:station:TCOON:518:1,2008-01-09T04:00:00Z,29.5150,-94.5133,0.0,5.2,349.0,6.3,'11111222,11111222,11111222' 
TCOON,ioos:station:TCOON:518:1,2008-01-09T05:00:00Z,29.5150,-94.5133,0.0,6.2,351.0,7.5,'11111222,11111222,11111222' 
TCOON,ioos:station:TCOON:518:1,2008-01-09T06:00:00Z,29.5150,-94.5133,0.0,7.2,353.0,9.2,'11111222,11111222,11111222' 
TCOON,ioos:station:TCOON:518:1,2008-01-09T07:00:00Z,29.5150,-94.5133,0.0,7.1,360.0,8.6,'11111222,11144222,11111222' 
TCOON,ioos:station:TCOON:518:1,2008-01-09T08:00:00Z,29.5150,-94.5133,0.0,7.8,358.0,9.6,'11111222,11111222,11111222' 
TCOON,ioos:station:TCOON:518:1,2008-01-09T09:00:00Z,29.5150,-94.5133,0.0,7.6,2.0,8.6,'11111222,11111222,11111222' 
TCOON,ioos:station:TCOON:518:1,2008-01-09T10:00:00Z,29.5150,-94.5133,0.0,6.9,360.0,8.8,'11111222,11144222,11111222' 
TCOON,ioos:station:TCOON:518:1,2008-01-09T11:00:00Z,29.5150,-94.5133,0.0,7.3,360.0,8.8,'11111222,11144222,11111222' 
TCOON,ioos:station:TCOON:518:1,2008-01-09T12:00:00Z,29.5150,-94.5133,0.0,5.8,3.0,6.7,'11111222,11111222,11111222' 
TCOON,ioos:station:TCOON:518:1,2008-01-09T13:00:00Z,29.5150,-94.5133,0.0,4.6,23.0,5.6,'11111222,11111222,11111222' 